FW4301 Weather Reports


Display with metric or nautical units.
time (UTC)temp
F
wind
direction
speed
MPH
gust
MPH
rain 1hr
in
rain 24hr
in
rain mn
in
humidity
%
barometer
mb
20260503013530 70 0 0.0 0.0 0.00 0.00 0.00 43 1019.1
20260503013041 71 0 0.0 0.0 0.00 0.00 0.00 41 1019.1
20260503012532 72 0 0.0 0.0 0.00 0.00 0.00 40 1019.1
20260503012029 72 0 0.0 0.0 0.00 0.00 0.00 39 1019.1
20260503011540 73 0 0.0 0.0 0.00 0.00 0.00 37 1019.1
20260503011029 73 0 0.0 0.0 0.00 0.00 0.00 36 1019.1
20260503010529 74 0 0.0 0.0 0.00 0.00 0.00 36 1019.1
20260503010039 75 0 0.0 0.0 0.00 0.00 0.00 35 1019.0
20260503005530 76 0 0.0 0.0 0.00 0.00 0.00 34 1018.9
20260503005031 76 0 0.0 0.0 0.00 0.00 0.00 33 1019.1
20260503004555 77 0 0.0 0.0 0.00 0.00 0.00 33 1019.1
20260503004029 78 0 0.0 0.0 0.00 0.00 0.00 34 1018.9
20260503003529 78 0 0.0 0.0 0.00 0.00 0.00 32 1019.0
20260503003101 78 0 0.0 0.0 0.00 0.00 0.00 29 1019.1
20260503002529 79 0 0.0 0.0 0.00 0.00 0.00 31 1018.9
20260503002030 80 0 0.0 0.0 0.00 0.00 0.00 29 1018.9
20260503001559 80 0 0.0 0.0 0.00 0.00 0.00 29 1018.9
20260503001029 81 0 0.0 0.0 0.00 0.00 0.00 32 1018.9
20260503000529 81 0 0.0 0.0 0.00 0.00 0.00 32 1018.9
20260503000040 81 0 0.0 0.0 0.00 0.00 0.00 27 1018.9
20260502235529 82 0 0.0 0.0 0.00 0.00 0.00 28 1018.9
20260502235029 82 0 0.0 0.0 0.00 0.00 0.00 27 1019.1
20260502234539 82 0 0.0 0.0 0.00 0.00 0.00 25 1018.9
20260502234030 82 0 0.0 0.0 0.00 0.00 0.00 24 1018.9
20260502233529 83 0 0.0 0.0 0.00 0.00 0.00 27 1018.9
20260502233046 83 0 0.0 0.0 0.00 0.00 0.00 25 1019.0
20260502232529 83 0 0.0 0.0 0.00 0.00 0.00 27 1018.9
20260502232029 83 0 0.0 0.0 0.00 0.00 0.00 27 1019.0
20260502231546 83 0 0.0 0.0 0.00 0.00 0.00 26 1019.1
20260502231029 83 0 0.0 0.0 0.00 0.00 0.00 22 1019.1
20260502230529 83 0 0.0 0.0 0.00 0.00 0.00 25 1019.2
20260502230047 83 0 0.0 0.0 0.00 0.00 0.00 24 1019.1
20260502225532 83 0 0.0 0.0 0.00 0.00 0.00 25 1019.2
20260502225030 83 0 0.0 0.0 0.00 0.00 0.00 28 1019.2
20260502224541 83 0 0.0 0.0 0.00 0.00 0.00 28 1019.2
20260502224030 83 0 0.0 0.0 0.00 0.00 0.00 23 1019.2
20260502223530 83 0 0.0 0.0 0.00 0.00 0.00 25 1019.3
20260502223041 83 0 0.0 0.0 0.00 0.00 0.00 26 1019.4
20260502222530 82 0 0.0 0.0 0.00 0.00 0.00 24 1019.4
20260502222030 83 0 0.0 0.0 0.00 0.00 0.00 20 1019.4
20260502221547 84 0 0.0 0.0 0.00 0.00 0.00 20 1019.5
20260502221030 83 0 0.0 0.0 0.00 0.00 0.00 23 1019.5
20260502220529 83 0 0.0 0.0 0.00 0.00 0.00 25 1019.5
20260502220047 83 0 0.0 0.0 0.00 0.00 0.00 27 1019.5
20260502215529 84 0 0.0 0.0 0.00 0.00 0.00 29 1019.5
20260502215029 84 0 0.0 0.0 0.00 0.00 0.00 27 1019.5
20260502214543 84 0 0.0 0.0 0.00 0.00 0.00 25 1019.6
20260502214030 84 0 0.0 0.0 0.00 0.00 0.00 30 1019.7
20260502213529 83 0 0.0 0.0 0.00 0.00 0.00 30 1019.8
20260502213101 83 0 0.0 0.0 0.00 0.00 0.00 30 1019.7
20260502212529 83 0 0.0 0.0 0.00 0.00 0.00 24 1019.8
20260502212030 84 0 0.0 0.0 0.00 0.00 0.00 26 1019.9
20260502211546 85 0 0.0 0.0 0.00 0.00 0.00 23 1019.9
20260502211030 86 0 0.0 0.0 0.00 0.00 0.00 27 1020.0
20260502210529 85 0 0.0 0.0 0.00 0.00 0.00 32 1020.0
20260502210043 85 0 0.0 0.0 0.00 0.00 0.00 30 1020.0
20260502205530 85 0 0.0 0.0 0.00 0.00 0.00 30 1020.0
20260502205029 85 0 0.0 0.0 0.00 0.00 0.00 24 1020.1
20260502204544 84 0 0.0 0.0 0.00 0.00 0.00 28 1020.1
20260502204030 84 0 0.0 0.0 0.00 0.00 0.00 34 1020.1
20260502203530 83 0 0.0 0.0 0.00 0.00 0.00 36 1020.1
20260502203042 83 0 0.0 0.0 0.00 0.00 0.00 34 1020.1
20260502202529 82 0 0.0 0.0 0.00 0.00 0.00 30 1020.2
20260502202029 82 0 0.0 0.0 0.00 0.00 0.00 34 1020.3
20260502201539 81 0 0.0 0.0 0.00 0.00 0.00 28 1020.3
20260502201029 81 0 0.0 0.0 0.00 0.00 0.00 25 1020.3
20260502200529 81 0 0.0 0.0 0.00 0.00 0.00 34 1020.4
20260502200100 81 0 0.0 0.0 0.00 0.00 0.00 30 1020.3
20260502195529 81 0 0.0 0.0 0.00 0.00 0.00 30 1020.5
20260502195029 81 0 0.0 0.0 0.00 0.00 0.00 33 1020.5
20260502194602 80 0 0.0 0.0 0.00 0.00 0.00 33 1020.6
20260502194029 80 0 0.0 0.0 0.00 0.00 0.00 28 1020.5
20260502193530 80 0 0.0 0.0 0.00 0.00 0.00 33 1020.7
20260502193040 81 0 0.0 0.0 0.00 0.00 0.00 29 1020.6
20260502192529 81 0 0.0 0.0 0.00 0.00 0.00 30 1020.8
20260502192029 80 0 0.0 0.0 0.00 0.00 0.00 36 1020.7
20260502191541 80 0 0.0 0.0 0.00 0.00 0.00 36 1020.8
20260502191030 80 0 0.0 0.0 0.00 0.00 0.00 28 1020.8
20260502190530 80 0 0.0 0.0 0.00 0.00 0.00 26 1020.8
20260502190040 80 0 0.0 0.0 0.00 0.00 0.00 28 1020.9
20260502185530 80 0 0.0 0.0 0.00 0.00 0.00 33 1021.0
20260502185029 80 0 0.0 0.0 0.00 0.00 0.00 35 1021.0
20260502184546 79 0 0.0 0.0 0.00 0.00 0.00 32 1021.1
20260502184032 79 0 0.0 0.0 0.00 0.00 0.00 33 1021.0
20260502183530 79 0 0.0 0.0 0.00 0.00 0.00 31 1021.2
20260502183049 79 0 0.0 0.0 0.00 0.00 0.00 36 1021.3
20260502182529 78 0 0.0 0.0 0.00 0.00 0.00 30 1021.4
20260502182029 79 0 0.0 0.0 0.00 0.00 0.00 30 1021.5
20260502181540 79 0 0.0 0.0 0.00 0.00 0.00 33 1021.6
20260502181030 78 0 0.0 0.0 0.00 0.00 0.00 37 1021.7
20260502180530 78 0 0.0 0.0 0.00 0.00 0.00 37 1021.8
20260502164030 74 0 0.0 0.0 0.00 0.00 0.00 40 1022.4
20260502163530 73 0 0.0 0.0 0.00 0.00 0.00 46 1022.4
20260502163040 73 0 0.0 0.0 0.00 0.00 0.00 44 1022.4
20260502162530 73 0 0.0 0.0 0.00 0.00 0.00 44 1022.4
20260502162031 73 0 0.0 0.0 0.00 0.00 0.00 44 1022.4
20260502161548 72 0 0.0 0.0 0.00 0.00 0.00 46 1022.3
20260502161030 72 0 0.0 0.0 0.00 0.00 0.00 44 1022.3
20260502160530 71 0 0.0 0.0 0.00 0.00 0.00 45 1022.3
20260502152029 67 0 0.0 0.0 0.00 0.00 0.00 60 1022.1
20260502151539 66 0 0.0 0.0 0.00 0.00 0.00 63 1022.0
20260502151029 66 0 0.0 0.0 0.00 0.00 0.00 63 1022.0
20260502150529 65 0 0.0 0.0 0.00 0.00 0.00 64 1022.1
20260502150123 64 0 0.0 0.0 0.00 0.00 0.00 65 1022.1
20260502130530 50 0 0.0 0.0 0.00 0.05 0.00 79 1021.5
20260502123533 48 0 0.0 0.0 0.00 0.06 0.00 77 1021.1
20260502123040 48 0 0.0 0.0 0.00 0.06 0.00 77 1021.1
20260502122529 48 0 0.0 0.0 0.00 0.06 0.00 77 1021.1
20260502122029 48 0 0.0 0.0 0.00 0.06 0.00 77 1021.0
20260502121543 48 0 0.0 0.0 0.00 0.06 0.00 77 1020.8
20260502121030 48 0 0.0 0.0 0.00 0.06 0.00 77 1020.7
20260502120529 48 0 0.0 0.0 0.00 0.06 0.00 77 1020.6
20260502120105 48 0 0.0 0.0 0.00 0.06 0.00 77 1020.5
20260502115531 48 0 0.0 0.0 0.00 0.06 0.00 77 1020.5
20260502115031 48 0 0.0 0.0 0.00 0.06 0.00 77 1020.4
20260502114542 48 0 0.0 0.0 0.00 0.06 0.00 77 1020.2
20260502114030 47 0 0.0 0.0 0.00 0.06 0.00 76 1020.1
20260502113530 47 0 0.0 0.0 0.00 0.06 0.00 76 1020.0
20260502113054 47 0 0.0 0.0 0.00 0.06 0.00 76 1019.9
20260502112529 47 0 0.0 0.0 0.00 0.06 0.00 76 1019.9
20260502112033 47 0 0.0 0.0 0.00 0.06 0.00 76 1019.8
20260502111548 47 0 0.0 0.0 0.00 0.06 0.00 76 1019.8
20260502111029 47 0 0.0 0.0 0.00 0.06 0.00 76 1019.7
20260502110529 47 0 0.0 0.0 0.00 0.06 0.00 76 1019.7
20260502110048 48 0 0.0 0.0 0.00 0.06 0.00 76 1019.7
20260502105528 48 0 0.0 0.0 0.00 0.06 0.00 76 1019.5
20260502105033 48 0 0.0 0.0 0.00 0.06 0.00 76 1019.4
20260502104544 48 0 0.0 0.0 0.00 0.06 0.00 76 1019.3
20260502104031 48 0 0.0 0.0 0.00 0.06 0.00 76 1019.3
20260502103532 48 0 0.0 0.0 0.00 0.06 0.00 76 1019.3
20260502103101 48 0 0.0 0.0 0.00 0.06 0.00 76 1019.2
20260502102530 49 0 0.0 0.0 0.00 0.06 0.00 76 1019.1
20260502102030 49 0 0.0 0.0 0.00 0.06 0.00 76 1019.1
20260502101549 49 0 0.0 0.0 0.00 0.06 0.00 76 1019.1
20260502101029 49 0 0.0 0.0 0.00 0.06 0.00 76 1019.1
20260502100531 49 0 0.0 0.0 0.00 0.06 0.00 76 1019.2
20260502091030 49 0 0.0 0.0 0.00 0.07 0.00 75 1018.7
20260502090529 49 0 0.0 0.0 0.00 0.07 0.00 75 1018.6
20260502071029 51 0 0.0 0.0 0.00 0.07 0.00 75 1018.9
20260502070529 51 0 0.0 0.0 0.00 0.07 0.00 75 1018.9
20260502070045 51 0 0.0 0.0 0.00 0.07 0.00 75 1018.8
20260502065530 51 0 0.0 0.0 0.00 0.07 0.00 75 1018.8
20260502065030 51 0 0.0 0.0 0.00 0.07 0.00 75 1018.8
20260502064541 51 0 0.0 0.0 0.00 0.07 0.00 74 1018.9
20260502064032 51 0 0.0 0.0 0.00 0.07 0.00 74 1019.1
20260502063530 51 0 0.0 0.0 0.00 0.07 0.00 74 1019.1
20260502063050 51 0 0.0 0.0 0.00 0.07 0.00 74 1019.2
20260502062530 51 0 0.0 0.0 0.00 0.07 0.00 74 1019.1
20260502062033 52 0 0.0 0.0 0.00 0.07 0.00 74 1019.1
20260502061541 52 0 0.0 0.0 0.00 0.07 0.00 74 1019.2
20260502061029 52 0 0.0 0.0 0.00 0.07 0.00 74 1019.3
20260502060530 52 0 0.0 0.0 0.00 0.07 0.00 74 1019.2
20260502060039 52 0 0.0 0.0 0.00 0.07 0.00 74 1019.3
20260502055529 52 0 0.0 0.0 0.00 0.07 0.00 74 1019.3
20260502055029 52 0 0.0 0.0 0.00 0.07 0.00 74 1019.3
20260502054554 52 0 0.0 0.0 0.00 0.07 0.00 73 1019.2
20260502054030 52 0 0.0 0.0 0.00 0.07 0.00 73 1019.3
20260502053529 53 0 0.0 0.0 0.00 0.07 0.00 73 1019.2
20260502053048 53 0 0.0 0.0 0.00 0.07 0.00 73 1019.2
20260502052530 53 0 0.0 0.0 0.00 0.07 0.00 73 1019.1
20260502052030 53 0 0.0 0.0 0.00 0.07 0.00 73 1019.2
20260502051541 53 0 0.0 0.0 0.00 0.07 0.00 73 1019.2
20260502051030 53 0 0.0 0.0 0.00 0.07 0.00 73 1019.1
20260502050530 54 0 0.0 0.0 0.00 0.07 0.00 73 1019.1
20260502050053 54 0 0.0 0.0 0.00 0.07 0.00 73 1019.2
20260502045530 54 0 0.0 0.0 0.00 0.07 0.07 73 1019.1
20260502045030 54 0 0.0 0.0 0.00 0.07 0.07 72 1018.9
20260502044544 54 0 0.0 0.0 0.00 0.07 0.07 72 1019.0
20260502044029 54 0 0.0 0.0 0.00 0.07 0.07 72 1019.0
20260502043529 54 0 0.0 0.0 0.00 0.07 0.07 72 1019.0
20260502043041 54 0 0.0 0.0 0.00 0.07 0.07 71 1019.1
20260502042530 54 0 0.0 0.0 0.00 0.07 0.07 71 1019.0
20260502042029 54 0 0.0 0.0 0.00 0.07 0.07 71 1019.1
20260502041547 54 0 0.0 0.0 0.00 0.07 0.07 71 1019.0
20260502041029 55 0 0.0 0.0 0.00 0.07 0.07 70 1018.9
20260502040530 55 0 0.0 0.0 0.00 0.07 0.07 69 1018.9
20260502040049 55 0 0.0 0.0 0.00 0.07 0.07 69 1019.0
20260502035530 55 0 0.0 0.0 0.00 0.07 0.07 69 1019.0
20260502035030 55 0 0.0 0.0 0.00 0.07 0.07 68 1018.9
20260502034540 56 0 0.0 0.0 0.00 0.07 0.07 67 1018.9
20260502034030 56 0 0.0 0.0 0.00 0.07 0.07 67 1018.8
20260502033529 56 0 0.0 0.0 0.00 0.07 0.07 67 1018.8
20260502033043 56 0 0.0 0.0 0.00 0.07 0.07 67 1018.9
20260502032529 56 0 0.0 0.0 0.00 0.07 0.07 67 1018.9
20260502032029 57 0 0.0 0.0 0.00 0.07 0.07 67 1018.9
20260502031539 57 0 0.0 0.0 0.00 0.07 0.07 67 1018.8
20260502031030 57 0 0.0 0.0 0.00 0.07 0.07 67 1018.7
20260502030529 57 0 0.0 0.0 0.00 0.07 0.07 67 1018.7
20260502030044 57 0 0.0 0.0 0.00 0.07 0.07 67 1018.7
20260502025529 57 0 0.0 0.0 0.00 0.07 0.07 67 1018.6
20260502025029 57 0 0.0 0.0 0.00 0.07 0.07 67 1018.5
20260502024545 57 0 0.0 0.0 0.00 0.07 0.07 67 1018.4
20260502024030 57 0 0.0 0.0 0.00 0.07 0.07 67 1018.3
20260502023530 57 0 0.0 0.0 0.00 0.07 0.07 67 1018.2
20260502023041 57 0 0.0 0.0 0.00 0.07 0.07 67 1018.1
20260502022530 57 0 0.0 0.0 0.00 0.07 0.07 67 1018.1
20260502022029 57 0 0.0 0.0 0.00 0.07 0.07 68 1018.1
20260502021540 57 0 0.0 0.0 0.00 0.07 0.07 68 1018.0
20260502021029 57 0 0.0 0.0 0.00 0.07 0.07 68 1018.0
20260502020529 57 0 0.0 0.0 0.00 0.07 0.07 67 1017.9
20260502020040 57 0 0.0 0.0 0.00 0.07 0.07 67 1017.8
20260502015530 57 0 0.0 0.0 0.00 0.07 0.07 67 1017.7
20260502015030 58 0 0.0 0.0 0.00 0.07 0.07 67 1017.6
20260502014540 58 0 0.0 0.0 0.00 0.07 0.07 67 1017.4
20260502014029 58 0 0.0 0.0 0.00 0.07 0.07 66 1017.2